Regional Weather Roundup
Issued by NWS Newport/Morehead, NC

Current Version | Previous Version | Graphics & Text | Print | Product List | Glossary Off
Versions: 1 2 3 4 5 6 7 8 9 10 11 12 13 14 15 16 17 18 19 20 21 22 23 24 25 26 27 28 29 30 31 32 33 34 35 36 37 38 39 40 41 42 43 44 45 46 47 48 49 50
000 ASUS42 KMHX 300212 RWRMHX WEATHER ROUNDUP FOR EASTERN NORTH CAROLINA NATIONAL WEATHER SERVICE NEWPORT/MOREHEAD CITY NC 1000 PM EDT SUN MAR 29 2015 NOTE: "FAIR" INDICATES FEW OR NO CLOUDS BELOW 12,000 FEET WITH NO SIGNIFICANT WEATHER AND/OR OBSTRUCTIONS TO VISIBILITY NCZ015>017-031-032-045>047-102-103-300300- NORTH COAST CITY SKY/WX TMP DP RH WIND PRES REMARKS EDENTON CLEAR 38 25 58 S6 30.29F ELIZABETH CITY CLEAR 35 24 64 S6 30.29F KITTY HAWK CLEAR 33 24 68 SE3 30.30F MANTEO CLEAR 35 25 67 SE6 30.32S $$ NCZ045>047-081-094-103-104-300300- CENTRAL COAST CITY SKY/WX TMP DP RH WIND PRES REMARKS FRISCO CLEAR 36 26 67 SE6 30.33S SWANQUARTER N/A 37 N/A N/A SE2 30.27S $$ NCZ095-097-098-100-101-300300- SOUTHERN COAST CITY SKY/WX TMP DP RH WIND PRES REMARKS BEAUFORT CLEAR 37 29 72 CALM 30.33S CEDAR ISLAND N/A 36 N/A N/A S2 30.36S JACKSONVILLE CLEAR 39 27 62 S7 30.33R PINEY ISLAND CLEAR N/A N/A N/A S5 30.32S WILMINGTON CLEAR 41 30 65 S3 30.33S $$ NCZ011>013-027>030-043-044-078>080-089-090>093-098-300300- COASTAL PLAIN CITY SKY/WX TMP DP RH WIND PRES REMARKS AHOSKIE CLEAR 33 23 67 S3 30.27F CLINTON CLEAR 40 25 54 S3 30.30F ELIZABETHTOWN CLEAR 40 24 53 SE5 30.31F GOLDSBORO CLEAR 42 21 44 S5 30.26F GREENVILLE CLEAR 41 23 48 S5 30.29F HAVELOCK CLEAR 34 27 75 S3 30.33F KENANSVILLE CLEAR 32 26 76 CALM 30.32F KINSTON CLEAR 36 28 75 CALM 30.30F NEW BERN CLEAR 34 26 72 CALM 30.33F RICHLANDS CLEAR 32 25 74 CALM 30.32F ROCKY MOUNT CLEAR 39 23 52 S5 30.27F WASHINGTON CLEAR 35 24 63 S3 30.30F WHITEVILLE CLEAR 38 30 72 CALM 30.31F $$ AMZ130-135-150-152-154-156-158-170-250-252-270-ANZ085-086-088-633-658-670-300300- MARINE OBSERVATIONS STATION/POSITION TIME TEMP WIND PRES WAVE SWELL AIR SEA DIR/SP/G HT/PER HT/PER (UTC) (F) (DEG/KT/KT) (MB) (FT/S) (FT/S) CHESAPEAKE LIGHT 0100 38 150/ 8/ 9 1026.4 64 E VA BEACH 0150 40 54 330/ 4/ 4 1025.8 5/ 9 5/ 9 DUCK 0100 38 43 140/ 8/ 9 1025.5 2 E DUCK 0111 43 N/A 3/ 6 2/11 10 NE DUCK NOT AVBL OREGON INLET 0100 35 45 140/ 4/ 4 1027.0 HATTERAS CG 0100 41 50 120/ 4/ 7 1027.2 CAPE LOOKOUT 0200 46 230/ 1/ 2 1026.7 BEAUFORT LAB 0100 46 53 220/ 3/ 4 1026.1 27 SE WRIGHTSVLE 0100 45 64 240/ 6/ 8 1028.6 5 SE WRIGHTSVLE 0100 48 56 200/ 12/ 14 1027.2 225 S CAPE HAT 0150 53 68 340/ 14/ 17 1028.0 6/ 8 5/ 8 41 SE CHARLESTON 0150 54 68 130/ 2/ 4 1027.7 3/ 9 3/ 9 $$

USA.gov is the U.S. government's official web portal to all federal, state and local government web resources and services.